LIC0213 SAEZ-SPJC

Flight info

Callsign LIC0213
Flight time N/A
Altitude 40000
Route ATOVO3A ATOVO UW5 TIPLO UZ102 CAT UM543 LOA UL550 SCO
Aircraft A359/H-SDE2E3GHIJ3J4J5LM1ORWXY/LB1D1

Departure

Time 2026-05-06 15:02
Airport Ezeiza International Airport - Ministro Pistarini (SAEZ)

Arrival

Time N/A
Airport Jorge Chávez International Airport (SPJC)
Time Latitude Longitude Altitude Speed Heading
2026-05-06 14:50 -34.81692 -58.54085 81 ft 0 kts
2026-05-06 14:56 -34.81693 -58.54085 81 ft 3 kts
2026-05-06 14:57 -34.81712 -58.54089 81 ft 3 kts
2026-05-06 14:57 -34.81732 -58.54084 81 ft 3 kts 319°
2026-05-06 14:57 -34.81744 -58.54066 81 ft 3 kts 278°
2026-05-06 14:57 -34.81745 -58.54057 81 ft 0 kts 263°
2026-05-06 14:59 -34.81746 -58.54067 81 ft 10 kts 264°
2026-05-06 14:59 -34.81757 -58.54241 81 ft 19 kts 269°
2026-05-06 15:00 -34.81757 -58.54406 82 ft 20 kts 270°
2026-05-06 15:00 -34.81767 -58.54581 82 ft 21 kts 261°
2026-05-06 15:00 -34.81789 -58.54772 82 ft 24 kts 262°
2026-05-06 15:00 -34.81768 -58.54946 82 ft 19 kts 287°
2026-05-06 15:01 -34.81728 -58.55114 82 ft 26 kts 285°
2026-05-06 15:01 -34.81751 -58.55310 82 ft 24 kts 221°
2026-05-06 15:01 -34.81869 -58.55320 84 ft 15 kts 165°
2026-05-06 15:01 -34.81927 -58.55218 84 ft 22 kts 109°
2026-05-06 15:02 -34.82019 -58.54728 88 ft 107 kts 102°
2026-05-06 15:02 -34.82234 -58.53468 165 ft 188 kts 102°
2026-05-06 15:02 -34.82525 -58.51727 713 ft 236 kts 102°
2026-05-06 15:02 -34.82858 -58.49537 1362 ft 286 kts 100°
2026-05-06 15:03 -34.83170 -58.47088 2158 ft 301 kts 98°
2026-05-06 15:03 -34.83421 -58.44529 2984 ft 307 kts 96°
2026-05-06 15:03 -34.83598 -58.41913 3833 ft 312 kts 94°
2026-05-06 15:03 -34.83709 -58.39248 4687 ft 316 kts 92°
2026-05-06 15:04 -34.83755 -58.36560 5527 ft 319 kts 90°
2026-05-06 15:04 -34.83734 -58.33851 6375 ft 321 kts 89°
2026-05-06 15:04 -34.83634 -58.31119 7225 ft 322 kts 86°
2026-05-06 15:04 -34.83450 -58.28426 8063 ft 324 kts 84°
2026-05-06 15:05 -34.83183 -58.25704 8915 ft 324 kts 82°
2026-05-06 15:05 -34.82834 -58.22983 9754 ft 324 kts 80°
2026-05-06 15:05 -34.82403 -58.20291 10586 ft 324 kts 78°
2026-05-06 15:05 -34.81892 -58.17626 11403 ft 323 kts 76°
2026-05-06 15:06 -34.81301 -58.14987 12194 ft 322 kts 74°
2026-05-06 15:06 -34.80636 -58.12385 12957 ft 321 kts 72°
2026-05-06 15:06 -34.79897 -58.09825 13698 ft 320 kts 70°
2026-05-06 15:06 -34.79097 -58.07336 14406 ft 319 kts 68°
2026-05-06 15:07 -34.78215 -58.04859 15097 ft 318 kts 65°
2026-05-06 15:07 -34.77665 -58.03432 15487 ft 317 kts 64°
2026-05-06 15:07 -34.76748 -58.01214 16086 ft 317 kts 62°
2026-05-06 15:07 -34.75686 -57.98868 16711 ft 316 kts 60°
2026-05-06 15:08 -34.74564 -57.96604 17309 ft 316 kts 58°
2026-05-06 15:08 -34.73355 -57.94370 17895 ft 316 kts 55°
2026-05-06 15:08 -34.72070 -57.92195 18464 ft 316 kts 53°
2026-05-06 15:08 -34.70717 -57.90093 19014 ft 316 kts 51°
2026-05-06 15:09 -34.69289 -57.88060 19547 ft 316 kts 48°
2026-05-06 15:09 -34.67786 -57.86099 20066 ft 316 kts 46°
2026-05-06 15:09 -34.66233 -57.84241 20562 ft 317 kts 43°
2026-05-06 15:09 -34.64592 -57.82444 21052 ft 317 kts 40°
2026-05-06 15:10 -34.62846 -57.80774 21433 ft 322 kts 32°
2026-05-06 15:10 -34.60788 -57.79716 21628 ft 331 kts 12°
2026-05-06 15:10 -34.58470 -57.79657 21802 ft 340 kts 348°
2026-05-06 15:10 -34.56286 -57.80777 21972 ft 348 kts 323°
2026-05-06 15:11 -34.54581 -57.82897 22169 ft 355 kts 306°
2026-05-06 15:11 -34.53213 -57.85439 22361 ft 364 kts 299°
2026-05-06 15:11 -34.52003 -57.88178 22552 ft 372 kts 296°
2026-05-06 15:11 -34.50837 -57.91025 22738 ft 380 kts 296°
2026-05-06 15:12 -34.49665 -57.93895 22916 ft 388 kts 296°
2026-05-06 15:12 -34.48430 -57.96835 23090 ft 395 kts 297°
2026-05-06 15:12 -34.47138 -57.99818 23258 ft 402 kts 297°
2026-05-06 15:12 -34.45803 -58.02830 23419 ft 409 kts 298°
2026-05-06 15:13 -34.44429 -58.05887 23576 ft 416 kts 298°
2026-05-06 15:13 -34.43027 -58.08982 23728 ft 422 kts 298°
2026-05-06 15:13 -34.42085 -58.11057 23826 ft 426 kts 298°
2026-05-06 15:13 -34.40157 -58.15301 24017 ft 434 kts 298°
2026-05-06 15:14 -34.39186 -58.17439 24108 ft 437 kts 298°
2026-05-06 15:14 -34.37714 -58.20683 24241 ft 443 kts 298°
2026-05-06 15:14 -34.36219 -58.23975 24377 ft 448 kts 298°
2026-05-06 15:14 -34.34713 -58.27292 24569 ft 451 kts 298°
2026-05-06 15:15 -34.33192 -58.30638 24791 ft 453 kts 298°
2026-05-06 15:15 -34.31670 -58.33985 25020 ft 455 kts 298°
2026-05-06 15:15 -34.30159 -58.37303 25242 ft 457 kts 298°
2026-05-06 15:15 -34.28617 -58.40686 25468 ft 459 kts 298°
2026-05-06 15:16 -34.27072 -58.44071 25693 ft 461 kts 298°
2026-05-06 15:16 -34.25517 -58.47476 25918 ft 463 kts 298°
2026-05-06 15:16 -34.23953 -58.50898 26143 ft 465 kts 298°
2026-05-06 15:16 -34.22399 -58.54293 26365 ft 467 kts 298°
2026-05-06 15:17 -34.20817 -58.57747 26590 ft 469 kts 298°
2026-05-06 15:17 -34.19235 -58.61197 26813 ft 471 kts 298°
2026-05-06 15:17 -34.17640 -58.64671 27039 ft 472 kts 298°
2026-05-06 15:17 -34.16061 -58.68108 27260 ft 474 kts 298°
2026-05-06 15:18 -34.14452 -58.71608 27486 ft 476 kts 298°
2026-05-06 15:18 -34.12836 -58.75117 27710 ft 478 kts 298°
2026-05-06 15:18 -34.11214 -58.78638 27934 ft 480 kts 298°
2026-05-06 15:18 -34.09585 -58.82171 28158 ft 482 kts 298°
2026-05-06 15:19 -34.07949 -58.85714 28375 ft 484 kts 298°
2026-05-06 15:19 -34.06320 -58.89238 28581 ft 486 kts 298°
2026-05-06 15:19 -34.04662 -58.92822 28783 ft 488 kts 299°
2026-05-06 15:19 -34.02997 -58.96418 28977 ft 490 kts 299°
2026-05-06 15:20 -34.01349 -58.99973 29160 ft 492 kts 299°
2026-05-06 15:20 -33.99672 -59.03587 29341 ft 493 kts 299°
2026-05-06 15:20 -33.97985 -59.07218 29519 ft 495 kts 299°
2026-05-06 15:20 -33.96297 -59.10849 29690 ft 497 kts 299°
2026-05-06 15:21 -33.94623 -59.14444 29849 ft 498 kts 299°
2026-05-06 15:21 -33.92923 -59.18093 30009 ft 500 kts 299°
2026-05-06 15:21 -33.91210 -59.21766 30164 ft 501 kts 299°
2026-05-06 15:21 -33.89498 -59.25432 30313 ft 502 kts 299°
2026-05-06 15:22 -33.87779 -59.29109 30454 ft 504 kts 299°
2026-05-06 15:22 -33.86079 -59.32743 30592 ft 505 kts 299°
2026-05-06 15:22 -33.84350 -59.36434 30727 ft 506 kts 299°
2026-05-06 15:22 -33.82609 -59.40145 30857 ft 508 kts 299°
2026-05-06 15:23 -33.80871 -59.43849 30983 ft 509 kts 299°
2026-05-06 15:23 -33.79130 -59.47555 31104 ft 510 kts 299°
2026-05-06 15:23 -33.77377 -59.51281 31226 ft 511 kts 299°
2026-05-06 15:23 -33.75619 -59.55016 31338 ft 513 kts 299°
2026-05-06 15:24 -33.73879 -59.58705 31446 ft 514 kts 299°
2026-05-06 15:24 -33.72116 -59.62444 31556 ft 515 kts 299°
2026-05-06 15:24 -33.70249 -59.66127 31649 ft 516 kts 304°
2026-05-06 15:24 -33.68056 -59.69557 31750 ft 517 kts 308°
2026-05-06 15:25 -33.65776 -59.72911 31843 ft 518 kts 309°
2026-05-06 15:25 -33.61144 -59.79491 32023 ft 520 kts 310°
2026-05-06 15:26 -33.56434 -59.86107 32185 ft 521 kts 310°
2026-05-06 15:26 -33.51714 -59.92750 32332 ft 523 kts 310°
2026-05-06 15:27 -33.46997 -59.99397 32472 ft 524 kts 310°
2026-05-06 15:27 -33.42252 -60.06077 32595 ft 526 kts 310°
2026-05-06 15:28 -33.37535 -60.12707 32707 ft 527 kts 310°
2026-05-06 15:28 -33.32780 -60.19375 32808 ft 528 kts 310°
2026-05-06 15:29 -33.27999 -60.26068 32905 ft 529 kts 310°
2026-05-06 15:29 -33.23213 -60.32755 32992 ft 530 kts 310°
2026-05-06 15:30 -33.18418 -60.39443 33070 ft 530 kts 310°
2026-05-06 15:30 -33.13628 -60.46111 33142 ft 531 kts 310°
2026-05-06 15:31 -33.08817 -60.52796 33208 ft 532 kts 310°
2026-05-06 15:31 -33.03979 -60.59507 33266 ft 532 kts 310°
2026-05-06 15:32 -32.96717 -60.69556 33349 ft 533 kts 310°
2026-05-06 15:32 -32.91908 -60.76230 33391 ft 534 kts 308°
2026-05-06 15:33 -32.87794 -60.83597 33435 ft 534 kts 301°
2026-05-06 15:33 -32.84027 -60.91146 33479 ft 534 kts 300°
2026-05-06 15:34 -32.80268 -60.98807 33516 ft 534 kts 300°
2026-05-06 15:34 -32.76526 -61.06396 33551 ft 535 kts 300°
2026-05-06 15:35 -32.72737 -61.14031 33583 ft 535 kts 300°
2026-05-06 15:35 -32.68965 -61.21607 33613 ft 535 kts 300°
2026-05-06 15:36 -32.65150 -61.29252 33642 ft 536 kts 300°
2026-05-06 15:36 -32.61358 -61.36836 33667 ft 536 kts 300°
2026-05-06 15:37 -32.57547 -61.44442 33691 ft 536 kts 300°
2026-05-06 15:37 -32.53750 -61.52005 33710 ft 536 kts 300°
2026-05-06 15:38 -32.49921 -61.59618 33730 ft 536 kts 300°
2026-05-06 15:38 -32.46100 -61.67199 33751 ft 537 kts 300°
2026-05-06 15:39 -32.42266 -61.74790 33768 ft 537 kts 301°
2026-05-06 15:39 -32.38445 -61.82340 33781 ft 537 kts 301°
2026-05-06 15:40 -32.34480 -61.89832 33784 ft 537 kts 307°
2026-05-06 15:40 -32.29459 -61.96333 33794 ft 538 kts 314°
2026-05-06 15:41 -32.24088 -62.02538 33810 ft 538 kts 316°
2026-05-06 15:41 -32.18720 -62.08624 33822 ft 538 kts 316°
2026-05-06 15:42 -32.13318 -62.14765 33837 ft 538 kts 315°
2026-05-06 15:42 -32.07913 -62.20926 33845 ft 538 kts 315°
2026-05-06 15:43 -32.02559 -62.27028 33853 ft 538 kts 315°
2026-05-06 15:43 -31.97160 -62.33171 33863 ft 538 kts 315°
2026-05-06 15:44 -31.91761 -62.39303 33873 ft 538 kts 316°
2026-05-06 15:44 -31.86361 -62.45423 33880 ft 538 kts 316°
2026-05-06 15:45 -31.80997 -62.51493 33889 ft 538 kts 316°
2026-05-06 15:45 -31.75577 -62.57616 33898 ft 538 kts 316°
2026-05-06 15:46 -31.70196 -62.63685 33908 ft 538 kts 316°
2026-05-06 15:46 -31.64783 -62.69778 33914 ft 539 kts 316°
2026-05-06 15:47 -31.59355 -62.75879 33918 ft 539 kts 316°
2026-05-06 15:47 -31.53965 -62.81926 33925 ft 539 kts 316°
2026-05-06 15:48 -31.48544 -62.87999 33930 ft 539 kts 316°
2026-05-06 15:48 -31.43107 -62.94079 33937 ft 539 kts 316°
2026-05-06 15:49 -31.37713 -63.00100 33943 ft 539 kts 316°
2026-05-06 15:49 -31.32275 -63.06160 33947 ft 539 kts 316°
2026-05-06 15:50 -31.26840 -63.12207 33952 ft 539 kts 316°
2026-05-06 15:50 -31.21549 -63.18375 33955 ft 539 kts 312°
2026-05-06 15:51 -31.16572 -63.24863 33960 ft 539 kts 311°
2026-05-06 15:51 -31.11574 -63.31401 33967 ft 538 kts 311°
2026-05-06 15:52 -31.06526 -63.37874 33969 ft 539 kts 312°
2026-05-06 15:52 -31.01471 -63.44286 33974 ft 539 kts 312°
2026-05-06 15:53 -30.96385 -63.50714 33978 ft 539 kts 312°
2026-05-06 15:53 -30.91190 -63.57007 33973 ft 539 kts 318°
2026-05-06 15:54 -30.85487 -63.62691 33978 ft 539 kts 320°
2026-05-06 15:54 -30.79731 -63.68221 33984 ft 539 kts 320°
2026-05-06 15:55 -30.73921 -63.73767 33988 ft 539 kts 320°
2026-05-06 15:55 -30.68160 -63.79275 33993 ft 539 kts 320°
2026-05-06 15:56 -30.62350 -63.84834 33998 ft 539 kts 320°
2026-05-06 15:56 -30.56589 -63.90339 34002 ft 539 kts 320°
2026-05-06 15:57 -30.50780 -63.95880 34006 ft 539 kts 320°
2026-05-06 15:57 -30.44982 -64.01403 34008 ft 539 kts 320°
2026-05-06 15:58 -30.39200 -64.06901 34013 ft 539 kts 320°
2026-05-06 15:58 -30.33396 -64.12411 34018 ft 539 kts 320°
2026-05-06 15:59 -30.27614 -64.17891 34022 ft 539 kts 320°
2026-05-06 15:59 -30.21829 -64.23366 34026 ft 539 kts 320°
2026-05-06 16:00 -30.16003 -64.28871 34032 ft 539 kts 320°
2026-05-06 16:00 -30.10220 -64.34326 34036 ft 539 kts 320°
2026-05-06 16:01 -30.04398 -64.39810 34040 ft 539 kts 320°
2026-05-06 16:01 -29.99553 -64.44368 34042 ft 539 kts 320°
2026-05-06 16:02 -29.92779 -64.50728 34047 ft 539 kts 320°
2026-05-06 16:02 -29.87927 -64.55275 34050 ft 539 kts 320°
2026-05-06 16:03 -29.82091 -64.60742 34057 ft 539 kts 320°
2026-05-06 16:03 -29.76288 -64.66170 34057 ft 539 kts 320°
2026-05-06 16:04 -29.70445 -64.71625 34060 ft 539 kts 321°
2026-05-06 16:04 -29.64611 -64.77063 34062 ft 539 kts 321°
2026-05-06 16:05 -29.58806 -64.82465 34067 ft 539 kts 321°
2026-05-06 16:05 -29.52972 -64.87887 34069 ft 539 kts 321°
2026-05-06 16:06 -29.47134 -64.93303 34074 ft 539 kts 321°
2026-05-06 16:06 -29.41313 -64.98695 34075 ft 539 kts 321°
2026-05-06 16:07 -29.35469 -65.04101 34078 ft 539 kts 321°
2026-05-06 16:07 -29.29620 -65.09504 34082 ft 539 kts 321°
2026-05-06 16:08 -29.23789 -65.14881 34086 ft 539 kts 321°
2026-05-06 16:08 -29.17931 -65.20275 34092 ft 539 kts 321°
2026-05-06 16:09 -29.12114 -65.25624 34095 ft 539 kts 321°
2026-05-06 16:09 -29.06260 -65.30998 34095 ft 539 kts 321°
2026-05-06 16:10 -29.00396 -65.36374 34101 ft 539 kts 321°
2026-05-06 16:10 -28.94532 -65.41743 34105 ft 539 kts 321°
2026-05-06 16:11 -28.88699 -65.47073 34108 ft 539 kts 321°
2026-05-06 16:11 -28.82823 -65.52434 34112 ft 539 kts 321°
2026-05-06 16:12 -28.77002 -65.57737 34117 ft 539 kts 321°
2026-05-06 16:12 -28.71129 -65.63082 34121 ft 539 kts 321°
2026-05-06 16:13 -28.65259 -65.68415 34125 ft 539 kts 321°
2026-05-06 16:13 -28.59330 -65.73667 34118 ft 540 kts 326°
2026-05-06 16:14 -28.52788 -65.77740 34121 ft 540 kts 333°
2026-05-06 16:14 -28.46006 -65.81444 34125 ft 540 kts 334°
2026-05-06 16:15 -28.39197 -65.85081 34134 ft 540 kts 334°
2026-05-06 16:15 -28.32423 -65.88712 34149 ft 540 kts 334°
2026-05-06 16:16 -28.25663 -65.92352 34156 ft 540 kts 334°
2026-05-06 16:16 -28.18841 -65.96026 34163 ft 540 kts 334°
2026-05-06 16:17 -28.12087 -65.99659 34166 ft 540 kts 334°
2026-05-06 16:17 -28.05276 -66.03317 34169 ft 540 kts 334°
2026-05-06 16:18 -27.98485 -66.06958 34170 ft 540 kts 334°
2026-05-06 16:18 -27.91725 -66.10578 34178 ft 540 kts 334°
2026-05-06 16:19 -27.84917 -66.14218 34187 ft 540 kts 334°
2026-05-06 16:19 -27.78112 -66.17851 34191 ft 540 kts 334°
2026-05-06 16:20 -27.71352 -66.21456 34192 ft 540 kts 334°
2026-05-06 16:20 -27.64548 -66.25078 34197 ft 540 kts 334°
2026-05-06 16:21 -27.57729 -66.28704 34203 ft 540 kts 334°
2026-05-06 16:21 -27.50953 -66.32302 34209 ft 540 kts 334°
2026-05-06 16:22 -27.44137 -66.35916 34214 ft 540 kts 334°
2026-05-06 16:22 -27.37366 -66.39501 34225 ft 540 kts 334°
2026-05-06 16:23 -27.30546 -66.43108 34229 ft 540 kts 334°
2026-05-06 16:23 -27.23763 -66.46690 34230 ft 540 kts 334°
2026-05-06 16:24 -27.16951 -66.50282 34230 ft 540 kts 334°
2026-05-06 16:24 -27.10128 -66.53876 34230 ft 540 kts 334°
2026-05-06 16:25 -27.03321 -66.57455 34230 ft 540 kts 334°
2026-05-06 16:25 -26.96548 -66.61013 34232 ft 540 kts 334°
2026-05-06 16:26 -26.89726 -66.64592 34238 ft 540 kts 334°
2026-05-06 16:26 -26.82902 -66.68166 34243 ft 540 kts 334°
2026-05-06 16:27 -26.76088 -66.71731 34249 ft 540 kts 334°
2026-05-06 16:27 -26.69302 -66.75284 34246 ft 540 kts 334°
2026-05-06 16:28 -26.62487 -66.78838 34247 ft 540 kts 335°
2026-05-06 16:28 -26.55669 -66.82389 34248 ft 540 kts 335°
2026-05-06 16:29 -26.48887 -66.85918 34249 ft 540 kts 335°
2026-05-06 16:29 -26.42052 -66.89472 34251 ft 540 kts 335°
2026-05-06 16:30 -26.36369 -66.92423 34259 ft 540 kts 335°
2026-05-06 16:30 -26.28432 -66.96539 34260 ft 540 kts 335°
2026-05-06 16:31 -26.21600 -67.00077 34260 ft 540 kts 335°
2026-05-06 16:31 -26.14806 -67.03590 34264 ft 540 kts 335°
2026-05-06 16:32 -26.07975 -67.07119 34268 ft 540 kts 335°
2026-05-06 16:32 -26.01189 -67.10619 34273 ft 540 kts 335°
2026-05-06 16:33 -25.94357 -67.14139 34277 ft 540 kts 335°
2026-05-06 16:34 -25.84158 -67.19384 34285 ft 540 kts 335°
2026-05-06 16:34 -25.77318 -67.22897 34285 ft 540 kts 335°
2026-05-06 16:35 -25.70519 -67.26384 34290 ft 540 kts 335°
2026-05-06 16:35 -25.63674 -67.29890 34288 ft 540 kts 335°
2026-05-06 16:36 -25.56834 -67.33389 34289 ft 540 kts 335°
2026-05-06 16:36 -25.50044 -67.36858 34291 ft 540 kts 335°
2026-05-06 16:37 -25.43212 -67.40345 34294 ft 540 kts 335°
2026-05-06 16:37 -25.36400 -67.43817 34299 ft 540 kts 335°
2026-05-06 16:38 -25.29554 -67.47302 34303 ft 540 kts 335°
2026-05-06 16:38 -25.22769 -67.50751 34303 ft 540 kts 335°
2026-05-06 16:39 -25.15926 -67.54225 34307 ft 540 kts 335°
2026-05-06 16:39 -25.09076 -67.57699 34311 ft 540 kts 335°
2026-05-06 16:40 -25.02271 -67.61146 34312 ft 540 kts 335°
2026-05-06 16:40 -24.95455 -67.64594 34314 ft 540 kts 335°
2026-05-06 16:41 -24.88608 -67.68054 34317 ft 540 kts 335°
2026-05-06 16:41 -24.81801 -67.71489 34318 ft 540 kts 335°
2026-05-06 16:42 -24.74936 -67.74949 34319 ft 540 kts 335°
2026-05-06 16:42 -24.68130 -67.78375 34321 ft 540 kts 335°
2026-05-06 16:43 -24.61271 -67.81824 34325 ft 540 kts 335°
2026-05-06 16:43 -24.54461 -67.85244 34332 ft 540 kts 335°
2026-05-06 16:44 -24.47606 -67.88683 34336 ft 540 kts 335°
2026-05-06 16:44 -24.40793 -67.92096 34341 ft 540 kts 335°
2026-05-06 16:45 -24.33943 -67.95524 34340 ft 540 kts 335°
2026-05-06 16:45 -24.27137 -67.98929 34342 ft 540 kts 335°
2026-05-06 16:46 -24.20303 -68.02395 34347 ft 540 kts 335°
2026-05-06 16:46 -24.13478 -68.05870 34348 ft 540 kts 335°
2026-05-06 16:47 -24.06694 -68.09315 34352 ft 540 kts 335°
2026-05-06 16:47 -23.99861 -68.12775 34356 ft 540 kts 335°
2026-05-06 16:48 -23.93074 -68.16206 34359 ft 540 kts 335°
2026-05-06 16:48 -23.86232 -68.19661 34361 ft 540 kts 335°
2026-05-06 16:49 -23.80549 -68.22528 34364 ft 540 kts 335°
2026-05-06 16:49 -23.72598 -68.26534 34363 ft 540 kts 335°
2026-05-06 16:50 -23.66918 -68.29393 34366 ft 540 kts 335°
2026-05-06 16:50 -23.60083 -68.32829 34372 ft 540 kts 335°
2026-05-06 16:51 -23.53250 -68.36261 34374 ft 540 kts 335°
2026-05-06 16:51 -23.46448 -68.39672 34375 ft 540 kts 335°
2026-05-06 16:52 -23.39641 -68.43083 34378 ft 540 kts 335°
2026-05-06 16:52 -23.32794 -68.46509 34381 ft 540 kts 335°
2026-05-06 16:53 -23.25947 -68.49932 34387 ft 540 kts 335°
2026-05-06 16:53 -23.19149 -68.53327 34390 ft 540 kts 335°
2026-05-06 16:54 -23.12341 -68.56725 34393 ft 540 kts 335°
2026-05-06 16:54 -23.05498 -68.60134 34397 ft 540 kts 335°
2026-05-06 16:55 -22.98651 -68.63541 34399 ft 540 kts 335°
2026-05-06 16:55 -22.91847 -68.66923 34402 ft 540 kts 335°
2026-05-06 16:56 -22.85035 -68.70306 34404 ft 540 kts 335°
2026-05-06 16:56 -22.78185 -68.73704 34408 ft 540 kts 335°
2026-05-06 16:57 -22.71385 -68.77074 34413 ft 540 kts 335°
2026-05-06 16:57 -22.64521 -68.80472 34419 ft 540 kts 335°
2026-05-06 16:58 -22.57705 -68.83842 34420 ft 540 kts 335°
2026-05-06 16:58 -22.50944 -68.87398 34409 ft 540 kts 328°
2026-05-06 16:59 -22.44928 -68.92217 34413 ft 539 kts 321°
2026-05-06 16:59 -22.39137 -68.97388 34419 ft 539 kts 320°
2026-05-06 17:00 -22.33373 -69.02614 34423 ft 539 kts 320°
2026-05-06 17:00 -22.27645 -69.07775 34430 ft 539 kts 320°
2026-05-06 17:01 -22.21851 -69.12965 34437 ft 539 kts 320°
2026-05-06 17:01 -22.16060 -69.18138 34442 ft 539 kts 320°
2026-05-06 17:02 -22.10307 -69.23271 34447 ft 539 kts 320°
2026-05-06 17:02 -22.04503 -69.28446 34451 ft 539 kts 320°
2026-05-06 17:03 -21.98743 -69.33577 34454 ft 539 kts 320°
2026-05-06 17:03 -21.92933 -69.38747 34459 ft 539 kts 320°
2026-05-06 17:04 -21.87168 -69.43870 34465 ft 539 kts 320°
2026-05-06 17:04 -21.81376 -69.49013 34467 ft 539 kts 320°
2026-05-06 17:05 -21.75578 -69.54154 34475 ft 539 kts 320°
2026-05-06 17:05 -21.69815 -69.59260 34481 ft 539 kts 320°
2026-05-06 17:06 -21.64007 -69.64400 34481 ft 539 kts 320°
2026-05-06 17:06 -21.58235 -69.69502 34486 ft 539 kts 320°
2026-05-06 17:07 -21.52419 -69.74638 34491 ft 539 kts 320°
2026-05-06 17:07 -21.46647 -69.79729 34495 ft 539 kts 320°
2026-05-06 17:08 -21.40860 -69.84828 34502 ft 539 kts 320°
2026-05-06 17:08 -21.35043 -69.89949 34511 ft 539 kts 320°
2026-05-06 17:09 -21.29269 -69.95025 34510 ft 539 kts 320°
2026-05-06 17:09 -21.23464 -70.00125 34517 ft 539 kts 320°
2026-05-06 17:10 -21.17644 -70.05232 34525 ft 539 kts 320°
2026-05-06 17:10 -21.11870 -70.10292 34540 ft 539 kts 320°
2026-05-06 17:11 -21.06056 -70.15384 34553 ft 539 kts 320°
2026-05-06 17:11 -21.00267 -70.20447 34559 ft 539 kts 320°
2026-05-06 17:12 -20.94454 -70.25529 34565 ft 539 kts 320°
2026-05-06 17:12 -20.88626 -70.30613 34573 ft 539 kts 320°
2026-05-06 17:13 -20.82841 -70.35654 34577 ft 539 kts 320°
2026-05-06 17:13 -20.77048 -70.40699 34583 ft 539 kts 320°
2026-05-06 17:14 -20.71222 -70.45768 34591 ft 539 kts 320°
2026-05-06 17:14 -20.65398 -70.50829 34598 ft 539 kts 320°
2026-05-06 17:15 -20.59614 -70.55857 34605 ft 539 kts 320°
2026-05-06 17:15 -20.53796 -70.60911 34613 ft 539 kts 320°
2026-05-06 17:16 -20.47969 -70.65963 34618 ft 539 kts 320°
2026-05-06 17:16 -20.42141 -70.71013 34626 ft 539 kts 320°
2026-05-06 17:17 -20.36344 -70.76033 34633 ft 539 kts 320°
2026-05-06 17:17 -20.30523 -70.81071 34641 ft 539 kts 321°
2026-05-06 17:18 -20.24692 -70.86098 34649 ft 539 kts 321°
2026-05-06 17:18 -20.18890 -70.91097 34657 ft 539 kts 321°
2026-05-06 17:19 -20.13050 -70.96126 34667 ft 539 kts 321°
2026-05-06 17:19 -20.07215 -71.01148 34673 ft 539 kts 321°
2026-05-06 17:20 -20.01424 -71.06127 34683 ft 538 kts 321°
2026-05-06 17:20 -19.95582 -71.11144 34689 ft 538 kts 321°
2026-05-06 17:21 -19.89735 -71.16162 34698 ft 538 kts 321°
2026-05-06 17:21 -19.83916 -71.21149 34705 ft 538 kts 321°
2026-05-06 17:22 -19.78076 -71.26151 34715 ft 538 kts 321°
2026-05-06 17:22 -19.72278 -71.31112 34722 ft 538 kts 321°
2026-05-06 17:23 -19.66431 -71.36109 34731 ft 538 kts 321°
2026-05-06 17:23 -19.60587 -71.41100 34741 ft 538 kts 321°
2026-05-06 17:24 -19.54768 -71.46064 34748 ft 538 kts 321°
2026-05-06 17:24 -19.48946 -71.51026 34757 ft 538 kts 321°
2026-05-06 17:25 -19.43102 -71.56001 34766 ft 538 kts 321°
2026-05-06 17:25 -19.37274 -71.60959 34775 ft 538 kts 321°
2026-05-06 17:26 -19.31410 -71.65942 34784 ft 538 kts 321°
2026-05-06 17:26 -19.25601 -71.70874 34784 ft 538 kts 321°
2026-05-06 17:27 -19.19738 -71.75848 34784 ft 538 kts 321°
2026-05-06 17:27 -19.13920 -71.80778 34784 ft 538 kts 321°
2026-05-06 17:28 -19.08063 -71.85737 34784 ft 538 kts 321°
2026-05-06 17:28 -19.02204 -71.90693 34784 ft 538 kts 321°
2026-05-06 17:29 -18.96390 -71.95606 34784 ft 538 kts 321°
2026-05-06 17:29 -18.90522 -72.00561 34784 ft 538 kts 321°
2026-05-06 17:30 -18.84659 -72.05506 34785 ft 538 kts 321°
2026-05-06 17:30 -18.78821 -72.10426 34785 ft 538 kts 321°
2026-05-06 17:31 -18.72997 -72.15329 34785 ft 538 kts 321°
2026-05-06 17:31 -18.67134 -72.20261 34785 ft 538 kts 321°
2026-05-06 17:32 -18.61264 -72.25195 34785 ft 538 kts 321°
2026-05-06 17:32 -18.55432 -72.30092 34785 ft 538 kts 321°
2026-05-06 17:33 -18.49568 -72.35012 34785 ft 538 kts 321°
2026-05-06 17:33 -18.43696 -72.39934 34785 ft 538 kts 321°
2026-05-06 17:34 -18.37868 -72.44814 34785 ft 538 kts 321°
2026-05-06 17:34 -18.31995 -72.49732 34785 ft 538 kts 321°
2026-05-06 17:35 -18.26151 -72.54621 34785 ft 538 kts 321°
2026-05-06 17:35 -18.20278 -72.59530 34785 ft 538 kts 321°
2026-05-06 17:36 -18.11520 -72.66843 34785 ft 538 kts 321°
2026-05-06 17:36 -18.06630 -72.70923 34785 ft 538 kts 321°
2026-05-06 17:37 -18.00749 -72.75825 34785 ft 538 kts 321°
2026-05-06 17:37 -17.94914 -72.80684 34785 ft 538 kts 321°
2026-05-06 17:38 -17.89043 -72.85569 34785 ft 538 kts 321°
2026-05-06 17:38 -17.83199 -72.90428 34785 ft 538 kts 321°
2026-05-06 17:39 -17.77325 -72.95307 34785 ft 538 kts 321°
2026-05-06 17:39 -17.71474 -73.00163 34785 ft 538 kts 321°
2026-05-06 17:40 -17.65597 -73.05036 34785 ft 538 kts 321°
2026-05-06 17:40 -17.59718 -73.09907 34785 ft 538 kts 321°
2026-05-06 17:41 -17.53875 -73.14744 34785 ft 538 kts 321°
2026-05-06 17:41 -17.47991 -73.19611 34785 ft 538 kts 321°
2026-05-06 17:42 -17.42137 -73.24449 34786 ft 538 kts 321°
2026-05-06 17:42 -17.36256 -73.29304 34786 ft 538 kts 321°
2026-05-06 17:43 -17.30373 -73.34158 34786 ft 538 kts 321°
2026-05-06 17:43 -17.24531 -73.38974 34785 ft 537 kts 321°
2026-05-06 17:44 -17.18634 -73.43830 34785 ft 537 kts 321°
2026-05-06 17:44 -17.12777 -73.48651 34785 ft 537 kts 321°
2026-05-06 17:45 -17.06893 -73.53489 34785 ft 537 kts 321°
2026-05-06 17:45 -17.01040 -73.58298 34786 ft 537 kts 321°
2026-05-06 17:46 -16.95146 -73.63137 34786 ft 537 kts 321°
2026-05-06 17:46 -16.89265 -73.67961 34786 ft 537 kts 321°
2026-05-06 17:47 -16.83408 -73.72760 34786 ft 537 kts 321°
2026-05-06 17:47 -16.77516 -73.77586 34786 ft 537 kts 321°
2026-05-06 17:48 -16.71651 -73.82385 34786 ft 537 kts 321°
2026-05-06 17:48 -16.65755 -73.87206 34786 ft 537 kts 321°
2026-05-06 17:49 -16.59864 -73.92018 34786 ft 537 kts 321°
2026-05-06 17:49 -16.53959 -73.96841 34786 ft 537 kts 321°
2026-05-06 17:50 -16.48098 -74.01618 34786 ft 537 kts 321°
2026-05-06 17:50 -16.42197 -74.06424 34821 ft 536 kts 321°
2026-05-06 17:51 -16.36340 -74.11192 34900 ft 535 kts 321°
2026-05-06 17:51 -16.30471 -74.15972 35000 ft 534 kts 321°
2026-05-06 17:52 -16.24651 -74.20718 35085 ft 533 kts 321°
2026-05-06 17:52 -34.81692 -58.54085 35129 ft 2 kts